Persoonlijke zone
Imprimable
Brussels, 19/10/2019, BEL - Adecco Brussels Ekiden
Rapportenlijst > Ekiden - Resultaat
Zoek: Bladzijde: [1]
224 Inputs
 
Klachten worden niet meer geaccepteerd. Resultaten zijn definitief.
PlaatsNrNaamLeef.ClubTijdTkmGem.ScrGemeente
1.839XF-SPORT 2:31:553:37 16.6719
2.831XFAST RUNNING CRIMINALS 2:40:253:49 15.7830
3.304XEU TEAM GEH REGIO FLYING 2:59:284:16 14.1171
4.1100XTEAM SPORTHUIS NOKERE 3:02:224:20 13.8876
5.844XH3O FAST 3:04:214:23 13.7381
6.154XRCB CRABES ELITES 3:05:004:24 13.6884
7.316XEU TEAM GEH – THE MOVERS 3:05:084:24 13.6885
8.246XSMART SPORT CLUB (BLAUW T 3:05:434:25 13.6387
9.833XFLY RUNNING CRIMINALS 3:06:074:25 13.6089
10.245XSMART SPORT CLUB - THE WH 3:09:254:30 13.3792
11.838XFREAKY RUNNING CRIMINALS 3:11:414:33 13.21104
12.840XFUN RUNNING CRIMINALS 3:11:524:33 13.20105
13.142XRCB CBG 3:12:194:34 13.16106
14.867XMASPOE RUNNING TEAM MIX 3:12:534:35 13.13108
15.150XBEERSCHOT 2 3:13:404:36 13.07112
16.1069X#POLISHRUN 3:14:054:36 13.05113
17.841XFURIOUS RUNNING CRIMINALS 3:14:284:37 13.02114
18.250XSMART SPORT CLUB (ROZE TE 3:14:314:37 13.02115
19.871XMINOR-NDAKO SPORT 3:15:094:38 12.97121
20.248XSMART SPORT CLUB (GROENE 3:17:364:41 12.81126
21.520XCOLRUYT GROUP R&D&I 3:18:004:42 12.79127
22.284XEU TEAM GEH – COMP_A_CERS 3:18:164:42 12.77130
23.247XSMART SPORT CLUB (GELE TE 3:18:214:43 12.76131
24.1094XELIA 4 3:19:364:44 12.68139
25.996XRUN, WOUTER, RUN! 3:20:154:45 12.64142
26.846XHEILIG HART LEUVEN 3:20:314:46 12.63145
27.249XSMART SPORT CLUB (RODE TE 3:20:354:46 12.62146
28.872XNEEPEEJEES 3:21:044:46 12.59148
29.283XEU TEAM GEH – COMP LAZY F 3:21:174:47 12.58150
30.849XINBIO 3:21:234:47 12.57151
31.279XEU TEAM GEH – COMP (FAST? 3:21:374:47 12.56154
32.251XSMART SPORT CLUB (ZWARTE 3:22:474:49 12.49163
33.850XINSURANCE EUROPE 3:23:214:50 12.45168
34.294XEU TEAM GEH – HR CAB RUNN 3:23:554:50 12.42172
35.1074XANTIGIFCENTRUM 3:24:394:51 12.37179
36.226XEY PARIS MARATHON RUNNERS 3:24:454:52 12.36180
37.845XH3O ON THE RUN 3:25:264:53 12.32183
38.877XOKKE ELZENHOF 3:25:404:53 12.31186
39.882XPWC 3 3:26:124:54 12.28190
40.317XEU TEAM GEH – THE SPILLOV 3:27:094:55 12.22200
41.287XEU TEAM GEH – CYBER RUNNI 3:27:504:56 12.18201
42.1083XCG RUNNIMODOS 3:27:504:56 12.18202
43.870XMINOR-NDAKO LEUVEN 3:27:504:56 12.18203
44.301XEU TEAM GEH - NEW GENERAT 3:28:174:57 12.16205
45.303XEU TEAM GEH - RATPACK RUN 3:28:364:57 12.14210
46.325XEU TEAM GEH FUNRUN 3:28:394:57 12.13212
47.288XEU TEAM GEH - EACEA 3:28:594:58 12.12217
48.843XGEUKENS-LAMBAERTS 3:29:084:58 12.11222
49.861XLES FRÈRES BOURRÉS 3:29:574:59 12.06227
50.340XEU TEAM GEH-SASAKA 3:30:575:00 12.00241
51.308XEU TEAM GEH - RODENBACH R 3:31:365:01 11.97247
52.1110XWE ARE SPARTA! @2 3:32:025:02 11.94252
53.300XEU TEAM GEH – LOS SPEEDY 3:33:035:03 11.88263
54.892XRUN4FUN SPEEDTEAM 3:33:145:04 11.87265
55.290XEU TEAM GEH - EDPS GIOVAN 3:34:145:05 11.82275
56.881XPWC 2 3:34:175:05 11.81276
57.164XDE VAN LOOYKENS 3:34:215:05 11.81277
58.859XLES ÉPICOURSIENS 3:34:475:06 11.79279
59.865XLES MARATHONNERES 3:35:105:06 11.77283
60.835XFMO SEPARATISTS 3:35:355:07 11.74287
61.338XEU TEAM GEH_IAMONFIRE 3:35:595:08 11.72295
62.1095XENSAI A 3:36:065:08 11.72298
63.1096XENSAI B 3:36:165:08 11.71301
64.222XBOULET & PEKET 3:36:165:08 11.71302
65.1084XDAWASVLUGGEDAAN 3:37:065:09 11.66311
66.314XEU TEAM GEH – THE AUTOMAT 3:37:095:09 11.66313
67.1105XTHIS IS SPARTA@4 3:37:205:10 11.65316
68.1111XWE ARE SPARTA! @3 3:37:295:10 11.64323
69.101XBASF TORNADOS 3:37:395:10 11.63324
70.299XEU TEAM GEH – LE GRAND HU 3:38:255:11 11.59331
71.235XVAT/CUSTOMS 1 3:38:485:12 11.57338
72.224XEY AUDIT ANTWERP 3:38:535:12 11.57339
73.883XQUANTO MANCA? 3:39:005:12 11.56343
74.230XNIET SNEL WEL GEZELLIG 3:39:365:13 11.53351
75.989XGERANIUMS 3:39:365:13 11.53352
76.318XEU TEAM GEH – WE R 1 3:39:425:13 11.52356
77.292XEU TEAM GEH - GREEEEEEEEE 3:39:495:13 11.52359
78.884XRCJAB 3:40:105:14 11.50362
79.282XEU TEAM GEH – COMP F(ORMU 3:40:115:14 11.50363
80.332XEU TEAM GEH RUNNING RESEA 3:40:135:14 11.50367
81.876XOCEAN RUNNERS 3:40:325:14 11.48371
82.153XRCB FAMILLE 1 3:42:275:17 11.38398
83.331XEU TEAM GEH REGIO FLYING 3:43:085:18 11.35414
84.102XINTERNATIONAL LONG DISTAN 3:43:135:18 11.34415
85.1082XCG LOGISTICS ENGINEERUN 3:43:515:19 11.31429
86.1003XWE THAUGHT THEY SAY RUN 3:45:175:21 11.24453
87.285XEU TEAM GEH – COMP_GAZELL 3:45:305:21 11.23457
88.848XHUNGARIAN FOOT HUSSARS 3:45:345:21 11.22458
89.896XRUNNING CLUB WEZEMBEEK-OP 3:45:545:22 11.21471
90.1001XTULIPS 3:45:555:22 11.21472
91.995XQA 3:46:035:22 11.20473
92.991XKOEN'S DREAM TEAM 3:46:075:22 11.20477
93.880XPWC 1 3:46:245:22 11.18481
94.152XRCB FLAGADA 3:46:285:23 11.18482
95.887XRISK TORNADOS 3:46:285:23 11.18484
96.826XENSEMBLE EN CHEMIN 6 3:46:345:23 11.17485
97.111XATLEMO - GAZELLES 3:46:555:23 11.16486
98.320XEU TEAM GEH EASME 2 3:46:585:23 11.16489
99.885XRCJAB 2 3:47:085:23 11.15494
100.234XTHE VIKINGS 3:47:335:24 11.13503
101.280XEU TEAM GEH – COMP BEENER 3:47:415:24 11.12505
102.306XEU TEAM GEH REGIO FLYING 3:47:435:24 11.12506
103.1113XXP 1 3:47:455:24 11.12507
104.324XEU TEAM GEH EP PRES CABIN 3:48:015:25 11.10514
105.113X7 O'CLOCK RUNNERS 3:48:065:25 11.10517
106.993XP&G SUPPLY CHAIN 3:48:105:25 11.10519
107.862XLES GAZELLES DES HONNELLE 3:48:475:26 11.07525
108.852XINTELLECTUAL FIGHTERS 1 3:48:575:26 11.06529
109.326XEU TEAM GEH OCEANS SIX 3:49:065:26 11.05531
110.323XEU TEAM GEH EP PRES CABIN 3:49:115:26 11.05534
111.988XESS ONE TEAM 3:49:295:27 11.03537
112.864XLES KIDS'AISNE 3:49:325:27 11.03538
113.894XRUNAFTERDIGIT 3:49:335:27 11.03539
114.836XFMO WRITTEN PROCEDURE 3:49:405:27 11.02540
115.1114XXP 2 3:49:445:27 11.02542
116.307XEU TEAM GEH REGIO FLYING 3:50:005:28 11.01546
117.1002XTURBO SNAIL 3:50:495:29 10.97557
118.998XRUNNING TURTLES 3:51:055:29 10.96560
119.837XFOYER NOTRE DAME DE PAIX 3:51:185:29 10.95564
120.342XEU-TEAM-FUN4RUN 3:51:205:29 10.94565
121.1072XABD (ASSOCIATION BELGE D 3:51:385:30 10.93571
122.1115XXP 3 3:52:055:31 10.91576
123.339XEU TEAM GEH_KICKING ASSET 3:52:085:31 10.91578
124.309XEU TEAM GEH – RUN4PASTA 3:52:105:31 10.91580
125.1073XANGELS OF EMPLOYMENT 3:52:235:31 10.90587
126.1126XTOUS A BORD 1 3:52:235:31 10.89588
127.863XLES GRIZZLYS DES HAUTS-PA 3:52:245:31 10.89590
128.302XEU TEAM GEH – PROSPERITEA 3:52:345:31 10.89595
129.295XEU TEAM GEH – INEA 1 3:52:405:31 10.88597
130.277XEU TEAM GEH - CLIMA RUNNE 3:52:465:31 10.88600
131.291XEU TEAM GEH – EMPL BREAKI 3:52:495:32 10.87602
132.228XEYTOURNAI1 3:53:135:32 10.86608
133.827XENSEMBLE EN CHEMIN 7 3:53:155:32 10.85609
134.229XEYTOURNAI2 3:53:165:32 10.85610
135.521XCOLRUYT GROUP SERVICE CEN 3:53:185:32 10.85612
136.824XENSEMBLE EN CHEMIN 4 3:53:195:32 10.85615
137.315XEU TEAM GEH – THE AWESOME 3:53:295:32 10.84621
138.225XEY FINANCE TEAM 3:53:395:33 10.84624
139.830XEVERRUNNERS 3:53:575:33 10.82626
140.869XMINOR-NDAKO CBAW BRUSSEL 3:53:575:33 10.82627
141.1088XE = MARE D3 3:54:015:33 10.82629
142.1107XUNCATHCABLE 3:54:035:33 10.82631
143.273XEU TEAM GEH – #BEACTIVE 3:54:055:33 10.82633
144.330XEU TEAM GEH REGIO FLYING 3:54:115:33 10.81635
145.336XEU TEAM GEH_BORN2RUN 3:54:365:34 10.79643
146.337XEU TEAM GEH_DUNNING FOR E 3:54:485:34 10.78644
147.335XEU TEAM GEH_BANANA4HANA 3:55:165:35 10.76653
148.327XEU TEAM GEH REGIO FLYING 3:56:075:36 10.72663
149.1086XDE WOLLIGE WINTERBEERTJES 3:56:235:37 10.71664
150.1102XTHE FLYING COMMUN-ERC-ATO 3:56:295:37 10.71667
151.519XCOLRUYT GROUP FINE FOOD T 3:56:475:37 10.69670
152.1085XDE RODE LOPERS 3:56:495:37 10.69671
153.296XEU TEAM GEH – INEA 2 3:57:055:38 10.68675
154.1080XBOIÇA 3:57:065:38 10.68676
155.221XA-TEAM 1 3:57:065:38 10.68677
156.1079XBC-TEAM 3:57:085:38 10.68678
157.994XPAS DE MARATHON SANS DONS 3:57:425:38 10.65692
158.122XRCB GRUPPETTO 3:57:465:39 10.65694
159.272XEU TEAM CEH - COMP - THE 3:57:485:39 10.65696
160.293XEU TEAM GEH – HR AMC CHAM 3:58:325:40 10.61705
161.145XLOS RAPIDOS 3:58:425:40 10.61710
162.1090XELANDEN 3:58:585:40 10.59714
163.985XBRUSSELS EKIDEN 3:59:165:41 10.58718
164.828XENSEMBLE EN CHEMIN 8 3:59:195:41 10.58719
165.281XEU TEAM GEH – COMP C5 NIN 3:59:535:42 10.55727
166.176XA.B.RUN 4:00:025:42 10.55729
167.298XEU TEAM GEH – I-RUNNERS 2 4:00:025:42 10.55731
168.1106XTUI BELGIUM 2 4:00:065:42 10.54733
169.329XEU TEAM GEH REGIO FLYING 4:00:125:42 10.54734
170.999XSHAKE-A-LEG 4:00:265:42 10.53735
171.825XENSEMBLE EN CHEMIN 5 4:00:395:43 10.52737
172.278XEU TEAM GEH – COMP – THE 4:00:575:43 10.51742
173.275XEU TEAM GEH – BELOW ZERO 4:01:005:43 10.51743
174.834XFLYING HIGH 4:01:055:43 10.50744
175.987XENGINEERING TEAM 4:01:175:44 10.49745
176.891XRUN4FUN DREAMTEAM 4:01:205:44 10.49746
177.1109XVLAMMERTJES 2 4:01:395:44 10.48750
178.1108XVLAMMERTJES 4:01:395:44 10.48751
179.333XEU TEAM GEH- SPANISH TEAM 4:01:485:44 10.47754
180.899XRUNNING PALS OF MARCO - 3 4:02:225:45 10.45757
181.893XRUN4FUN TRIPELTEAM 4:02:545:46 10.42762
182.334XEU TEAM GEH THE GREEN BUT 4:03:155:46 10.41767
183.274XEU TEAM GEH - BÉBÉS HR 4:04:075:48 10.37782
184.233XSPORTIFEY 4:04:125:48 10.37786
185.851XINTELLECTUAL FIGHTERS 2 4:04:265:48 10.36789
186.1000XSURICATS 4:04:295:48 10.36791
187.992XNORTH SEA CONTROL TOWER 4:04:345:48 10.35796
188.341XEU TEAM GH - COMP MADOU M 4:04:455:49 10.34797
189.232XPAS DIEGEM 4:04:495:49 10.34800
190.244XSTO NL RUNNERS 4:05:235:49 10.32807
191.1076XATLAS COPCO INDUSTRIAL VA 4:05:485:50 10.30812
192.1097XSNAIL RUNNING TEAM (DEPAR 4:06:475:51 10.26819
193.321XEU TEAM GEH EASME 3 4:07:255:52 10.23825
194.997XRUNNING CLEANERS 4:07:375:53 10.22828
195.312XEU TEAM GEH – SJ BLUE BRE 4:08:145:53 10.20836
196.855XJRC-GEEL LEISURE 4:08:355:54 10.18842
197.1104XTHE SUPREMES 4:09:535:56 10.13849
198.328XEU TEAM GEH REGIO FLYING 4:10:015:56 10.13851
199.276XEU TEAM GEH - BRAVE ENFOR 4:10:095:56 10.12852
200.1087XDREAM TEAM 4:10:185:56 10.12855
201.829XERC4EKIDEN 4:10:595:57 10.09858
202.898XRUNNING PALS OF MARCO - 2 4:11:395:58 10.06865
203.888XROTARY BRUSSELS CANTERSTE 4:11:555:59 10.05868
204.252XTHE BEST ONES 4:12:576:00 10.01878
205.523XCOLRUYT GROUP TECHNICS 4:13:476:01 9.98886
206.986XBRUSSELS EKIDEN RELAY MAR 4:13:506:01 9.97887
207.889XROTARY BRUSSELS CANTERSTE 4:13:596:02 9.97888
208.253XPRIMA TEAM 4:14:176:02 9.96891
209.286XEU TEAM GEH – COMPLICES C 4:14:506:03 9.94894
210.319XEU TEAM GEH EASME 1 4:14:596:03 9.93895
211.858XJUSTITIEHUIS BRUSSEL 4:15:056:03 9.93896
212.1099XTEAM FOFO 4:15:456:04 9.90901
213.1081XCARROS DE FOGUEO V 4:18:276:08 9.80916
214.236XVAT/CUSTOMS 2 4:18:576:09 9.78920
215.231XPARTNER TEAM 4:19:016:09 9.77921
216.897XRUNNING PALS OF MARCO - 1 4:26:596:20 9.48957
217.1098XSUICIDE SQUAD 4:29:076:23 9.41963
218.890XRUN FOR FUN 4:30:416:25 9.35969
219.822XENSEMBLE EN CHEMIN 2 4:31:476:27 9.32972
220.821XENSEMBLE EN CHEMIN 1 4:31:476:27 9.32973
221.823XENSEMBLE EN CHEMIN 3 4:31:476:27 9.32974
222.223XEVERYTHING IS AWESOME 4:32:056:27 9.31975
223.311XEU TEAM GEH - SFM PILLARS 4:37:236:35 9.13980
DNF1124XTEAM KAREN
DNF: abandon; DSQ: disqualifié; Vitesse en km/h
Bladzijde: [1]